Flag for U.S.A. Weather past 2 weeks in Kodiak, Alaska, U.S.A.

Now
56 °F

Broken clouds.


Feels Like: 55 °F
Forecast: 52 / 62 °F
Wind: 6 mph from Northwest

Location: Kodiak Weather Reporting Station

Current Time: Jul 22, 2014 at 9:44:17 AM

Latest Report: Jul 22, 2014 at 8:53 AM


Visibility: 10 mi

Pressure: 29.98 "Hg

Humidity: 87%

Dew point: 52 °F

Location of KodiakLocation

Historic Weather in Kodiak — Graph

°F

Kodiak temperature yesterday

Maximum temperature yesterday: 72 °F (at 3:53 PM)
Minimum temperature yesterday: 54 °F (at 5:53 AM)
Average temperature yesterday: 62 °F

Past Weeks' High & Low Weather Summary

 TemperatureHumidityPressure
High72 °F (Jul 21, 3:53 PM)100% (Jul 7, 7:53 AM)30.36 "Hg (Jul 7, 7:53 AM)
Low45 °F (Jul 15, 4:53 AM)38% (Jul 20, 4:53 PM)29.48 "Hg (Jul 10, 9:53 PM)
Average56 °F81%29.95 "Hg
* Reported Jul 7 7:53 AM — Jul 22 7:53 AM, Kodiak, Weather by CustomWeather, © 2014

Note: Actual official high and low records may vary slightly from our data, if they occured in-between our weather recording intervals... More about our weather records

Advertising

Kodiak weather history for previous 24 hours

 ConditionsComfort  
Time TempWeatherWind HumidityBarometerVisibility
7:53 AM
Jul 22
55 °FBroken clouds.6 mph87%29.99 "Hg10 mi
6:53 AM51 °FBroken clouds.5 mph92%30.00 "Hg10 mi
5:53 AM53 °FClear.7 mph93%30.00 "Hg10 mi
4:53 AM53 °FPassing clouds.3 mph93%30.01 "Hg10 mi
3:53 AM55 °FPassing clouds.10 mph87%30.01 "Hg10 mi
2:53 AM53 °FClear.5 mph89%30.03 "Hg10 mi
1:53 AM55 °FClear.6 mph87%30.04 "Hg10 mi
12:53 AM55 °FPassing clouds.5 mph83%30.04 "Hg10 mi
11:53 PM
Jul 21
58 °FClear.6 mph75%30.04 "Hg10 mi
10:53 PM60 °FScattered clouds.10 mph67%30.05 "Hg10 mi
9:53 PM63 °FBroken clouds.12 mph58%30.03 "Hg10 mi
8:53 PM66 °FBroken clouds.15 mph52%30.03 "Hg10 mi
7:53 PM69 °FSunny.10 mph51%30.03 "Hg10 mi
6:53 PM66 °FSunny.9 mph59%30.04 "Hg10 mi
5:53 PM68 °FPartly sunny.7 mph53%30.04 "Hg10 mi
4:53 PM71 °FPartly sunny.7 mph45%30.05 "Hg10 mi
3:53 PM72 °FPartly sunny.9 mph43%30.06 "Hg10 mi
2:53 PM68 °FPartly sunny.9 mph51%30.06 "Hg10 mi
1:53 PM67 °FScattered clouds.8 mph55%30.07 "Hg10 mi
12:53 PM64 °FSunny.6 mph58%30.07 "Hg10 mi
11:53 AM62 °FSunny.7 mph58%30.08 "Hg10 mi
10:53 AM62 °FSunny.6 mph50%30.08 "Hg10 mi
9:53 AM59 °FSunny.5 mph60%30.08 "Hg10 mi
Weather by CustomWeather, © 2014

See weather overviewHow to use our weather pages